Find Starlink 33565

NORAD ID: 62288 Int'l Des: 2024-237 Owner: SPXS Country: US Constellation: starlink operational
LEOCIRCULAR

当前视图

正在加载3D地球...

About Starlink 33565

Starlink 33565 (NORAD 62288) is a starlink constellation satellite (v2 mini) launched Dec 8, 2024 by SPXS of US. It operates in LEO, CIRCULAR orbit with a mass of 530.00 kg.

关于 Starlink 33565

正在加载描述...

即将过境

Passes for default location (London). Set your location on the main map for personalized predictions.

高度历史

Loading altitude history...

两行轨道根数

1 62288U 24237X 26195.08878605 .00008765 00000-0 32757-3 0 9992
2 62288 42.9982 211.2219 0001041 261.4721 98.6013 15.27586465 90655
Epoch: Jul 14, 2026 • Age: 12 hours

当前状态

高度 487.7 km
远地点 / 近地点 N/A
速度 7.62 km/s
星下点 -21.74°S, 32.53°E
发射日期 Dec 8, 2024
运行时间 1.5 years
类型 internet

技术详情

分类 Payload
质量 530.00 kg
干质量 500.00 kg
总质量 530.00 kg
长度 0.30 m
直径 4.10 m
跨度 29.00 m
形状 Box + pan
制造商 SPXS
平台类型 Starlink V2MO
阶段状态 In Orbit
所有者/国家 SPXS/US

Most Searched